| time (UTC) | temp F | wind direction | speed MPH | gust MPH | rain 1hr in | rain 24hr in | rain mn in | humidity % | barometer mb |
| 20260502152200 | 53 | 272 | 5.0 | 9.0 | 0.00 | 0.00 | 0.00 | 50 | 1018.8 |
| 20260502151658 | 54 | 216 | 2.0 | 4.0 | 0.00 | 0.00 | 0.00 | 50 | 1018.8 |
| 20260502151155 | 56 | 47 | 4.0 | 6.0 | 0.00 | 0.00 | 0.00 | 50 | 1018.8 |
| 20260502150652 | 55 | 216 | 2.0 | 3.0 | 0.00 | 0.00 | 0.00 | 48 | 1018.7 |
| 20260502150148 | 54 | 13 | 0.0 | 2.0 | 0.00 | 0.00 | 0.00 | 51 | 1018.6 |
| 20260502140112 | 51 | 24 | 1.0 | 3.0 | 0.00 | 0.00 | 0.00 | 59 | 1018.9 |
| 20260502130537 | 40 | 214 | 0.0 | 1.0 | 0.00 | 0.00 | 0.00 | 99 | 1018.8 |
| 20260502123520 | 38 | 214 | 0.0 | 0.0 | 0.00 | 0.00 | 0.00 | 99 | 1018.9 |
| 20260502123017 | 37 | 214 | 0.0 | 0.0 | 0.00 | 0.00 | 0.00 | 99 | 1019.0 |
| 20260502122513 | 37 | 214 | 0.0 | 1.0 | 0.00 | 0.00 | 0.00 | 99 | 1019.1 |
| 20260502122011 | 36 | 214 | 0.0 | 2.0 | 0.00 | 0.00 | 0.00 | 99 | 1019.0 |
| 20260502121508 | 36 | 185 | 1.0 | 2.0 | 0.00 | 0.00 | 0.00 | 99 | 1018.9 |
| 20260502121005 | 36 | 182 | 1.0 | 2.0 | 0.00 | 0.00 | 0.00 | 99 | 1018.9 |
| 20260502120501 | 35 | 147 | 0.0 | 1.0 | 0.00 | 0.00 | 0.00 | 99 | 1019.0 |
| 20260502115456 | 35 | 96 | 0.0 | 0.0 | 0.00 | 0.00 | 0.00 | 99 | 1018.9 |
| 20260502114952 | 35 | 96 | 0.0 | 1.0 | 0.00 | 0.00 | 0.00 | 99 | 1019.0 |
| 20260502114449 | 35 | 96 | 0.0 | 0.0 | 0.00 | 0.00 | 0.00 | 99 | 1019.0 |
| 20260502113946 | 34 | 96 | 0.0 | 0.0 | 0.00 | 0.00 | 0.00 | 99 | 1018.9 |
| 20260502113443 | 34 | 103 | 0.0 | 0.0 | 0.00 | 0.00 | 0.00 | 99 | 1018.9 |
| 20260502112942 | 33 | 110 | 1.0 | 1.0 | 0.00 | 0.00 | 0.00 | 99 | 1018.8 |
| 20260502112439 | 33 | 140 | 0.0 | 0.0 | 0.00 | 0.00 | 0.00 | 99 | 1019.0 |
| 20260502111936 | 33 | 140 | 0.0 | 0.0 | 0.00 | 0.00 | 0.00 | 99 | 1019.0 |
| 20260502111433 | 32 | 140 | 0.0 | 0.0 | 0.00 | 0.00 | 0.00 | 99 | 1018.9 |
| 20260502110931 | 32 | 140 | 0.0 | 0.0 | 0.00 | 0.00 | 0.00 | 99 | 1018.7 |
| 20260502110429 | 32 | 140 | 0.0 | 0.0 | 0.00 | 0.00 | 0.00 | 99 | 1018.7 |
| 20260502105925 | 32 | 140 | 0.0 | 0.0 | 0.00 | 0.00 | 0.00 | 99 | 1018.7 |
| 20260502105422 | 32 | 66 | 0.0 | 0.0 | 0.00 | 0.00 | 0.00 | 99 | 1018.5 |
| 20260502104921 | 32 | 66 | 0.0 | 0.0 | 0.00 | 0.00 | 0.00 | 99 | 1018.8 |
| 20260502104418 | 32 | 66 | 0.0 | 0.0 | 0.00 | 0.00 | 0.00 | 99 | 1018.6 |
| 20260502103915 | 32 | 66 | 0.0 | 0.0 | 0.00 | 0.00 | 0.00 | 99 | 1018.7 |
| 20260502103413 | 32 | 66 | 0.0 | 0.0 | 0.00 | 0.00 | 0.00 | 99 | 1018.8 |
| 20260502102910 | 32 | 66 | 0.0 | 0.0 | 0.00 | 0.00 | 0.00 | 99 | 1018.9 |
| 20260502102406 | 32 | 66 | 0.0 | 0.0 | 0.00 | 0.00 | 0.00 | 99 | 1019.0 |
| 20260502101904 | 32 | 66 | 0.0 | 0.0 | 0.00 | 0.00 | 0.00 | 99 | 1019.1 |
| 20260502101402 | 32 | 66 | 0.0 | 0.0 | 0.00 | 0.00 | 0.00 | 99 | 1018.9 |
| 20260502100900 | 32 | 66 | 0.0 | 0.0 | 0.00 | 0.00 | 0.00 | 99 | 1018.8 |
| 20260502100359 | 32 | 66 | 0.0 | 0.0 | 0.00 | 0.00 | 0.00 | 99 | 1018.8 |
| 20260502091332 | 31 | 66 | 0.0 | 0.0 | 0.00 | 0.00 | 0.00 | 99 | 1018.7 |
| 20260502090830 | 31 | 66 | 0.0 | 0.0 | 0.00 | 0.00 | 0.00 | 99 | 1018.8 |
| 20260502090327 | 32 | 66 | 0.0 | 0.0 | 0.00 | 0.00 | 0.00 | 99 | 1019.0 |
| 20260502071222 | 32 | 66 | 0.0 | 0.0 | 0.00 | 0.00 | 0.00 | 99 | 1018.4 |
| 20260502070720 | 33 | 66 | 0.0 | 0.0 | 0.00 | 0.00 | 0.00 | 99 | 1018.5 |
| 20260502070217 | 32 | 66 | 0.0 | 0.0 | 0.00 | 0.00 | 0.00 | 99 | 1018.4 |
| 20260502065716 | 32 | 66 | 0.0 | 0.0 | 0.00 | 0.00 | 0.00 | 99 | 1018.5 |
| 20260502065213 | 33 | 66 | 0.0 | 0.0 | 0.00 | 0.00 | 0.00 | 99 | 1018.7 |
| 20260502064712 | 33 | 66 | 0.0 | 0.0 | 0.00 | 0.00 | 0.00 | 99 | 1018.7 |
| 20260502064209 | 33 | 66 | 0.0 | 1.0 | 0.00 | 0.00 | 0.00 | 99 | 1018.7 |
| 20260502063706 | 33 | 66 | 0.0 | 0.0 | 0.00 | 0.00 | 0.00 | 99 | 1018.9 |
| 20260502063204 | 33 | 66 | 0.0 | 0.0 | 0.00 | 0.00 | 0.00 | 99 | 1018.9 |
| 20260502062701 | 33 | 66 | 0.0 | 0.0 | 0.00 | 0.00 | 0.00 | 99 | 1019.0 |
| 20260502062158 | 33 | 66 | 0.0 | 0.0 | 0.00 | 0.00 | 0.00 | 99 | 1019.1 |
| 20260502061656 | 33 | 66 | 0.0 | 0.0 | 0.00 | 0.00 | 0.00 | 99 | 1019.1 |
| 20260502061154 | 33 | 66 | 0.0 | 0.0 | 0.00 | 0.00 | 0.00 | 99 | 1019.1 |
| 20260502060648 | 33 | 66 | 0.0 | 0.0 | 0.00 | 0.00 | 0.00 | 99 | 1019.2 |
| 20260502060145 | 33 | 67 | 0.0 | 0.0 | 0.00 | 0.00 | 0.00 | 99 | 1019.3 |
| 20260502055642 | 34 | 67 | 0.0 | 0.0 | 0.00 | 0.00 | 0.00 | 99 | 1019.2 |
| 20260502055140 | 34 | 67 | 0.0 | 0.0 | 0.00 | 0.00 | 0.00 | 99 | 1019.1 |
| 20260502054639 | 34 | 67 | 0.0 | 0.0 | 0.00 | 0.00 | 0.00 | 99 | 1019.1 |
| 20260502054136 | 34 | 67 | 0.0 | 0.0 | 0.00 | 0.00 | 0.00 | 99 | 1019.2 |
| 20260502053633 | 34 | 67 | 0.0 | 0.0 | 0.00 | 0.00 | 0.00 | 99 | 1019.2 |
| 20260502053130 | 34 | 67 | 0.0 | 0.0 | 0.00 | 0.00 | 0.00 | 99 | 1019.2 |
| 20260502052629 | 34 | 67 | 0.0 | 0.0 | 0.00 | 0.00 | 0.00 | 99 | 1019.1 |
| 20260502052127 | 34 | 67 | 0.0 | 0.0 | 0.00 | 0.00 | 0.00 | 99 | 1019.0 |
| 20260502051625 | 34 | 67 | 0.0 | 0.0 | 0.00 | 0.00 | 0.00 | 99 | 1019.1 |
| 20260502051123 | 34 | 67 | 0.0 | 0.0 | 0.00 | 0.00 | 0.00 | 99 | 1019.2 |
| 20260502050619 | 34 | 67 | 0.0 | 0.0 | 0.00 | 0.00 | 0.00 | 99 | 1019.1 |
| 20260502050115 | 35 | 67 | 0.0 | 0.0 | 0.00 | 0.00 | 0.00 | 99 | 1019.3 |
| 20260502045612 | 35 | 67 | 0.0 | 0.0 | 0.00 | 0.00 | 0.00 | 99 | 1019.3 |
| 20260502045109 | 35 | 67 | 0.0 | 0.0 | 0.00 | 0.00 | 0.00 | 99 | 1019.1 |
| 20260502044606 | 35 | 67 | 0.0 | 0.0 | 0.00 | 0.00 | 0.00 | 99 | 1019.2 |
| 20260502044103 | 35 | 67 | 0.0 | 0.0 | 0.00 | 0.00 | 0.00 | 99 | 1019.4 |
| 20260502043601 | 35 | 67 | 0.0 | 0.0 | 0.00 | 0.00 | 0.00 | 99 | 1019.2 |
| 20260502043056 | 35 | 67 | 0.0 | 1.0 | 0.00 | 0.00 | 0.00 | 99 | 1019.1 |
| 20260502042551 | 35 | 67 | 0.0 | 0.0 | 0.00 | 0.00 | 0.00 | 99 | 1019.3 |
| 20260502042049 | 35 | 67 | 0.0 | 0.0 | 0.00 | 0.00 | 0.00 | 99 | 1019.1 |
| 20260502041547 | 36 | 67 | 0.0 | 0.0 | 0.00 | 0.00 | 0.00 | 99 | 1019.2 |
| 20260502041043 | 35 | 67 | 0.0 | 0.0 | 0.00 | 0.00 | 0.00 | 98 | 1019.3 |
| 20260502040540 | 35 | 67 | 0.0 | 0.0 | 0.00 | 0.00 | 0.00 | 98 | 1019.2 |
| 20260502040037 | 36 | 67 | 0.0 | 0.0 | 0.00 | 0.02 | 0.02 | 98 | 1019.2 |
| 20260502035533 | 36 | 67 | 0.0 | 0.0 | 0.00 | 0.02 | 0.02 | 98 | 1019.0 |
| 20260502035031 | 36 | 67 | 0.0 | 0.0 | 0.00 | 0.02 | 0.02 | 98 | 1019.0 |
| 20260502034528 | 36 | 67 | 0.0 | 0.0 | 0.00 | 0.02 | 0.02 | 98 | 1019.1 |
| 20260502034027 | 36 | 67 | 0.0 | 0.0 | 0.00 | 0.02 | 0.02 | 97 | 1019.1 |
| 20260502033525 | 36 | 67 | 0.0 | 0.0 | 0.00 | 0.02 | 0.02 | 97 | 1019.0 |
| 20260502033022 | 36 | 67 | 0.0 | 0.0 | 0.00 | 0.02 | 0.02 | 97 | 1019.1 |
| 20260502032517 | 37 | 67 | 0.0 | 0.0 | 0.00 | 0.02 | 0.02 | 97 | 1018.9 |
| 20260502032014 | 37 | 67 | 0.0 | 0.0 | 0.00 | 0.02 | 0.02 | 97 | 1019.1 |
| 20260502031512 | 37 | 67 | 0.0 | 0.0 | 0.00 | 0.02 | 0.02 | 97 | 1019.1 |
| 20260502031010 | 37 | 66 | 0.0 | 0.0 | 0.00 | 0.02 | 0.02 | 97 | 1019.1 |
| 20260502030508 | 38 | 58 | 0.0 | 1.0 | 0.00 | 0.02 | 0.02 | 96 | 1019.3 |
| 20260502030006 | 38 | 57 | 0.0 | 0.0 | 0.00 | 0.02 | 0.02 | 96 | 1019.3 |
| 20260502025503 | 38 | 57 | 0.0 | 0.0 | 0.00 | 0.02 | 0.02 | 96 | 1019.2 |
| 20260502025001 | 38 | 57 | 0.0 | 0.0 | 0.00 | 0.02 | 0.02 | 96 | 1019.2 |
| 20260502024458 | 38 | 57 | 0.0 | 0.0 | 0.00 | 0.02 | 0.02 | 95 | 1019.0 |
| 20260502023956 | 38 | 57 | 0.0 | 0.0 | 0.00 | 0.02 | 0.02 | 95 | 1018.9 |
| 20260502023453 | 39 | 57 | 0.0 | 0.0 | 0.00 | 0.02 | 0.02 | 95 | 1018.9 |
| 20260502022950 | 39 | 57 | 0.0 | 0.0 | 0.00 | 0.02 | 0.02 | 94 | 1018.8 |
| 20260502022447 | 39 | 57 | 0.0 | 0.0 | 0.00 | 0.02 | 0.02 | 94 | 1018.6 |
| 20260502021944 | 39 | 57 | 0.0 | 0.0 | 0.00 | 0.02 | 0.02 | 93 | 1018.5 |
| 20260502021442 | 40 | 57 | 0.0 | 0.0 | 0.00 | 0.02 | 0.02 | 92 | 1018.4 |
| 20260502020938 | 40 | 57 | 0.0 | 1.0 | 0.00 | 0.02 | 0.02 | 92 | 1018.5 |
| 20260502020437 | 40 | 57 | 0.0 | 0.0 | 0.00 | 0.02 | 0.02 | 91 | 1018.4 |
| 20260502015933 | 40 | 56 | 1.0 | 1.0 | 0.00 | 0.02 | 0.02 | 91 | 1018.3 |
| 20260502015431 | 41 | 47 | 0.0 | 0.0 | 0.00 | 0.02 | 0.02 | 90 | 1018.2 |
| 20260502014927 | 42 | 47 | 0.0 | 0.0 | 0.00 | 0.02 | 0.02 | 88 | 1018.0 |
| 20260502014424 | 42 | 47 | 0.0 | 0.0 | 0.00 | 0.02 | 0.02 | 85 | 1018.1 |
| 20260502013921 | 44 | 36 | 0.0 | 0.0 | 0.00 | 0.02 | 0.02 | 84 | 1018.0 |
| 20260502013416 | 44 | 30 | 0.0 | 0.0 | 0.00 | 0.02 | 0.02 | 78 | 1017.9 |
| 20260502012913 | 45 | 26 | 0.0 | 1.0 | 0.00 | 0.02 | 0.02 | 75 | 1018.0 |
| 20260502012411 | 46 | 26 | 0.0 | 0.0 | 0.00 | 0.02 | 0.02 | 74 | 1017.8 |
| 20260502011908 | 46 | 26 | 0.0 | 0.0 | 0.00 | 0.02 | 0.02 | 73 | 1017.7 |
| 20260502011404 | 47 | 19 | 0.0 | 2.0 | 0.00 | 0.02 | 0.02 | 71 | 1017.6 |
| 20260502010902 | 47 | 264 | 0.0 | 1.0 | 0.00 | 0.02 | 0.02 | 71 | 1017.6 |
| 20260502010358 | 47 | 18 | 0.0 | 0.0 | 0.00 | 0.02 | 0.02 | 71 | 1017.5 |
| 20260502005855 | 47 | 24 | 0.0 | 1.0 | 0.00 | 0.02 | 0.02 | 69 | 1017.4 |
| 20260502005352 | 48 | 47 | 0.0 | 3.0 | 0.00 | 0.02 | 0.02 | 69 | 1017.2 |
| 20260502004850 | 48 | 36 | 1.0 | 2.0 | 0.00 | 0.02 | 0.02 | 69 | 1017.1 |
| 20260502004345 | 48 | 50 | 1.0 | 2.0 | 0.00 | 0.02 | 0.02 | 70 | 1017.1 |
| 20260502003843 | 49 | 50 | 1.0 | 3.0 | 0.00 | 0.02 | 0.02 | 69 | 1016.9 |
| 20260502003340 | 49 | 28 | 4.0 | 6.0 | 0.00 | 0.02 | 0.02 | 68 | 1017.0 |
| 20260502002837 | 50 | 338 | 2.0 | 3.0 | 0.00 | 0.02 | 0.02 | 68 | 1017.2 |
| 20260502002334 | 49 | 79 | 2.0 | 8.0 | 0.00 | 0.02 | 0.02 | 68 | 1017.1 |
| 20260502001831 | 50 | 349 | 2.0 | 3.0 | 0.00 | 0.02 | 0.02 | 67 | 1016.9 |
| 20260502001329 | 51 | 315 | 1.0 | 4.0 | 0.00 | 0.02 | 0.02 | 66 | 1016.7 |
| 20260502000826 | 51 | 51 | 3.0 | 8.0 | 0.00 | 0.02 | 0.02 | 65 | 1016.6 |
| 20260502000325 | 52 | 31 | 2.0 | 11.0 | 0.00 | 0.02 | 0.02 | 64 | 1016.5 |
| 20260501235820 | 52 | 40 | 2.0 | 3.0 | 0.00 | 0.02 | 0.02 | 64 | 1016.4 |
| 20260501235316 | 52 | 94 | 3.0 | 7.0 | 0.00 | 0.02 | 0.02 | 67 | 1016.0 |
| 20260501234811 | 52 | 345 | 3.0 | 4.0 | 0.00 | 0.02 | 0.02 | 66 | 1015.9 |
| 20260501234309 | 53 | 347 | 2.0 | 6.0 | 0.00 | 0.02 | 0.02 | 67 | 1015.8 |
| 20260501233807 | 53 | 36 | 4.0 | 6.0 | 0.00 | 0.02 | 0.02 | 65 | 1015.6 |
| 20260501233304 | 53 | 254 | 3.0 | 6.0 | 0.00 | 0.02 | 0.02 | 65 | 1015.4 |
| 20260501232800 | 53 | 106 | 0.0 | 3.0 | 0.00 | 0.02 | 0.02 | 68 | 1015.4 |
| 20260501232257 | 54 | 70 | 1.0 | 7.0 | 0.00 | 0.02 | 0.02 | 66 | 1015.4 |
| 20260501231754 | 54 | 355 | 1.0 | 3.0 | 0.00 | 0.02 | 0.02 | 67 | 1015.3 |
| 20260501231253 | 55 | 305 | 2.0 | 4.0 | 0.00 | 0.02 | 0.02 | 68 | 1015.5 |
| 20260501230750 | 54 | 323 | 3.0 | 4.0 | 0.00 | 0.02 | 0.02 | 68 | 1015.4 |
| 20260501230249 | 54 | 202 | 2.0 | 4.0 | 0.00 | 0.02 | 0.02 | 69 | 1015.4 |
| 20260501225746 | 54 | 245 | 2.0 | 4.0 | 0.00 | 0.02 | 0.02 | 69 | 1015.1 |
| 20260501225244 | 54 | 255 | 0.0 | 4.0 | 0.00 | 0.02 | 0.02 | 69 | 1015.3 |
| 20260501224739 | 54 | 67 | 0.0 | 3.0 | 0.00 | 0.02 | 0.02 | 71 | 1015.2 |
| 20260501224237 | 55 | 247 | 0.0 | 2.0 | 0.00 | 0.02 | 0.02 | 69 | 1015.3 |
| 20260501223733 | 55 | 271 | 0.0 | 8.0 | 0.00 | 0.02 | 0.02 | 69 | 1015.3 |
| 20260501223230 | 55 | 276 | 1.0 | 3.0 | 0.00 | 0.02 | 0.02 | 70 | 1015.2 |
| 20260501222726 | 55 | 312 | 3.0 | 4.0 | 0.00 | 0.02 | 0.02 | 71 | 1015.1 |
| 20260501222223 | 55 | 321 | 0.0 | 2.0 | 0.00 | 0.02 | 0.02 | 72 | 1015.2 |
| 20260501221720 | 56 | 245 | 3.0 | 6.0 | 0.00 | 0.02 | 0.02 | 69 | 1014.9 |
| 20260501221217 | 56 | 301 | 1.0 | 4.0 | 0.00 | 0.02 | 0.02 | 69 | 1014.8 |
| 20260501220715 | 56 | 236 | 0.0 | 3.0 | 0.00 | 0.02 | 0.02 | 70 | 1015.0 |
| 20260501220212 | 55 | 54 | 1.0 | 3.0 | 0.00 | 0.02 | 0.02 | 70 | 1014.9 |
| 20260501215709 | 55 | 260 | 0.0 | 4.0 | 0.00 | 0.02 | 0.02 | 71 | 1015.0 |
| 20260501215204 | 54 | 241 | 0.0 | 1.0 | 0.00 | 0.02 | 0.02 | 72 | 1015.1 |
| 20260501214659 | 54 | 236 | 1.0 | 2.0 | 0.00 | 0.02 | 0.02 | 72 | 1015.0 |
| 20260501214155 | 54 | 297 | 1.0 | 2.0 | 0.00 | 0.02 | 0.02 | 72 | 1015.1 |
| 20260501213652 | 54 | 290 | 0.0 | 2.0 | 0.00 | 0.02 | 0.02 | 72 | 1014.9 |
| 20260501213147 | 54 | 337 | 0.0 | 1.0 | 0.00 | 0.02 | 0.02 | 74 | 1015.1 |
| 20260501212644 | 53 | 301 | 0.0 | 2.0 | 0.00 | 0.02 | 0.02 | 73 | 1014.8 |
| 20260501212141 | 54 | 327 | 0.0 | 2.0 | 0.00 | 0.02 | 0.02 | 72 | 1014.8 |
| 20260501211638 | 53 | 20 | 3.0 | 4.0 | 0.00 | 0.02 | 0.02 | 72 | 1014.7 |
| 20260501211135 | 53 | 42 | 3.0 | 4.0 | 0.00 | 0.02 | 0.02 | 73 | 1014.7 |
| 20260501210632 | 54 | 302 | 2.0 | 2.0 | 0.00 | 0.02 | 0.02 | 71 | 1014.6 |
| 20260501210128 | 54 | 248 | 3.0 | 7.0 | 0.00 | 0.02 | 0.02 | 69 | 1014.9 |
| 20260501205625 | 54 | 30 | 1.0 | 4.0 | 0.00 | 0.02 | 0.02 | 70 | 1014.9 |
| 20260501205123 | 55 | 67 | 3.0 | 4.0 | 0.00 | 0.02 | 0.02 | 72 | 1014.7 |
| 20260501204619 | 54 | 260 | 1.0 | 3.0 | 0.00 | 0.02 | 0.02 | 71 | 1014.7 |
| 20260501204115 | 54 | 342 | 2.0 | 3.0 | 0.00 | 0.02 | 0.02 | 70 | 1014.7 |
| 20260501203612 | 54 | 263 | 2.0 | 7.0 | 0.00 | 0.02 | 0.02 | 69 | 1014.8 |
| 20260501203109 | 54 | 257 | 6.0 | 9.0 | 0.00 | 0.02 | 0.02 | 71 | 1014.8 |
| 20260501202606 | 54 | 299 | 4.0 | 7.0 | 0.00 | 0.02 | 0.02 | 72 | 1015.0 |
| 20260501202103 | 55 | 325 | 3.0 | 7.0 | 0.00 | 0.02 | 0.02 | 72 | 1014.8 |
| 20260501201600 | 55 | 322 | 2.0 | 9.0 | 0.00 | 0.02 | 0.02 | 71 | 1014.9 |
| 20260501201056 | 56 | 322 | 3.0 | 6.0 | 0.00 | 0.02 | 0.02 | 73 | 1014.6 |
| 20260501200553 | 56 | 252 | 2.0 | 8.0 | 0.00 | 0.02 | 0.02 | 73 | 1014.7 |
| 20260501200051 | 56 | 88 | 1.0 | 6.0 | 0.00 | 0.02 | 0.02 | 73 | 1014.7 |
| 20260501195548 | 56 | 325 | 5.0 | 13.0 | 0.00 | 0.02 | 0.02 | 71 | 1014.5 |
| 20260501195043 | 57 | 291 | 4.0 | 7.0 | 0.00 | 0.02 | 0.02 | 73 | 1014.4 |
| 20260501194539 | 58 | 295 | 1.0 | 3.0 | 0.00 | 0.02 | 0.02 | 74 | 1014.5 |
| 20260501194035 | 58 | 244 | 0.0 | 4.0 | 0.00 | 0.02 | 0.02 | 75 | 1014.3 |
| 20260501193533 | 57 | 230 | 1.0 | 2.0 | 0.00 | 0.02 | 0.02 | 78 | 1014.3 |
| 20260501193031 | 56 | 272 | 1.0 | 2.0 | 0.00 | 0.02 | 0.02 | 79 | 1014.4 |
| 20260501192527 | 56 | 26 | 1.0 | 3.0 | 0.00 | 0.02 | 0.02 | 80 | 1014.4 |
| 20260501192026 | 56 | 33 | 3.0 | 3.0 | 0.05 | 0.02 | 0.02 | 80 | 1014.5 |
| 20260501191522 | 56 | 359 | 1.0 | 3.0 | 0.05 | 0.02 | 0.02 | 84 | 1014.1 |
| 20260501191020 | 55 | 350 | 0.0 | 1.0 | 0.00 | 0.01 | 0.01 | 80 | 1014.4 |
| 20260501190515 | 55 | 271 | 0.0 | 1.0 | 0.07 | 0.01 | 0.01 | 79 | 1014.5 |
| 20260501190011 | 55 | 20 | 0.0 | 4.0 | 0.07 | 0.01 | 0.01 | 77 | 1014.4 |
| 20260501185507 | 56 | 235 | 2.0 | 9.0 | 0.00 | 0.00 | 0.00 | 72 | 1014.5 |
| 20260501185003 | 57 | 29 | 1.0 | 8.0 | 0.00 | 0.00 | 0.00 | 68 | 1014.1 |
| 20260501184459 | 59 | 306 | 2.0 | 3.0 | 0.00 | 0.00 | 0.00 | 63 | 1013.8 |
| 20260501183954 | 60 | 346 | 0.0 | 3.0 | 0.00 | 0.00 | 0.00 | 63 | 1013.6 |
| 20260501183452 | 60 | 261 | 1.0 | 3.0 | 0.00 | 0.00 | 0.00 | 58 | 1013.4 |
| 20260501182948 | 61 | 241 | 1.0 | 6.0 | 0.00 | 0.00 | 0.00 | 55 | 1013.6 |
| 20260501182445 | 61 | 263 | 3.0 | 4.0 | 0.00 | 0.00 | 0.00 | 53 | 1013.4 |
| 20260501181941 | 62 | 349 | 1.0 | 7.0 | 0.00 | 0.00 | 0.00 | 50 | 1013.4 |
| 20260501181439 | 63 | 42 | 1.0 | 4.0 | 0.00 | 0.00 | 0.00 | 52 | 1013.3 |
| 20260501180936 | 64 | 259 | 1.0 | 6.0 | 0.00 | 0.00 | 0.00 | 49 | 1013.3 |
| 20260501180433 | 62 | 219 | 5.0 | 8.0 | 0.00 | 0.00 | 0.00 | 50 | 1013.2 |
| 20260501175929 | 62 | 288 | 6.0 | 8.0 | 0.00 | 0.00 | 0.00 | 49 | 1013.3 |
| 20260501175426 | 62 | 227 | 3.0 | 10.0 | 0.00 | 0.00 | 0.00 | 51 | 1013.4 |
| 20260501174923 | 63 | 243 | 3.0 | 9.0 | 0.00 | 0.00 | 0.00 | 49 | 1013.4 |
| 20260501174421 | 63 | 261 | 2.0 | 3.0 | 0.00 | 0.00 | 0.00 | 47 | 1013.4 |
| 20260501173918 | 62 | 285 | 3.0 | 4.0 | 0.00 | 0.00 | 0.00 | 47 | 1013.6 |
| 20260501173416 | 64 | 232 | 6.0 | 10.0 | 0.00 | 0.00 | 0.00 | 46 | 1013.3 |
| 20260501172911 | 62 | 269 | 4.0 | 8.0 | 0.00 | 0.00 | 0.00 | 48 | 1013.4 |
| 20260501172406 | 62 | 186 | 2.0 | 6.0 | 0.00 | 0.00 | 0.00 | 50 | 1013.7 |
| 20260501171902 | 64 | 243 | 3.0 | 4.0 | 0.00 | 0.00 | 0.00 | 46 | 1013.6 |
| 20260501171359 | 63 | 227 | 4.0 | 4.0 | 0.00 | 0.00 | 0.00 | 48 | 1013.6 |
| 20260501170855 | 62 | 239 | 3.0 | 4.0 | 0.00 | 0.00 | 0.00 | 48 | 1013.4 |
| 20260501170352 | 62 | 298 | 3.0 | 7.0 | 0.00 | 0.00 | 0.00 | 49 | 1013.6 |
| 20260501165850 | 62 | 251 | 4.0 | 6.0 | 0.00 | 0.00 | 0.00 | 49 | 1013.6 |
| 20260501165348 | 61 | 243 | 6.0 | 7.0 | 0.00 | 0.00 | 0.00 | 49 | 1013.8 |
| 20260501164845 | 61 | 269 | 4.0 | 6.0 | 0.00 | 0.00 | 0.00 | 50 | 1013.8 |
| 20260501164343 | 61 | 238 | 1.0 | 6.0 | 0.00 | 0.00 | 0.00 | 50 | 1013.8 |
| 20260501163838 | 60 | 331 | 3.0 | 7.0 | 0.00 | 0.00 | 0.00 | 51 | 1014.0 |
| 20260501163335 | 60 | 189 | 6.0 | 9.0 | 0.00 | 0.00 | 0.00 | 54 | 1014.4 |
| 20260501162832 | 60 | 210 | 5.0 | 9.0 | 0.00 | 0.00 | 0.00 | 50 | 1014.3 |
| 20260501162329 | 59 | 271 | 5.0 | 8.0 | 0.00 | 0.00 | 0.00 | 52 | 1014.5 |
| 20260501161826 | 60 | 218 | 3.0 | 4.0 | 0.00 | 0.00 | 0.00 | 55 | 1014.4 |
| 20260501161323 | 60 | 232 | 2.0 | 7.0 | 0.00 | 0.00 | 0.00 | 53 | 1014.5 |
| 20260501160819 | 59 | 181 | 4.0 | 7.0 | 0.00 | 0.00 | 0.00 | 53 | 1014.5 |
| 20260501160316 | 58 | 211 | 2.0 | 4.0 | 0.00 | 0.00 | 0.00 | 54 | 1014.6 |
| 20260501155814 | 58 | 178 | 5.0 | 8.0 | 0.00 | 0.00 | 0.00 | 51 | 1014.3 |